Regional Weather Roundup
Issued by NWS Boston, MA

Home | Current Version | Previous Version | Text Only | Print | Product List | Glossary On
Versions: 1 2 3 4 5 6 7 8 9 10 11 12 13 14 15 16 17 18 19 20 21 22 23 24 25 26 27 28 29 30 31 32 33 34 35 36 37 38 39 40 41 42 43 44 45 46 47 48
000
ASUS41 KBOX 220610
RWRBOX

REGIONAL WEATHER ROUNDUP
NATIONAL WEATHER SERVICE TAUNTON MA
200 AM EDT MON SEP 22 2014

NOTE:  "FAIR" INDICATES FEW OR NO CLOUDS BELOW 12,000 FEET WITH NO
SIGNIFICANT WEATHER AND/OR OBSTRUCTIONS TO VISIBILITY.  THE FOLLOWING
OBSERVATION LOCATIONS DO NOT REPORT PRESENT WEATHER...PROVINCETOWN...
SMITHFIELD...BLOCK ISLAND...KEENE...AND OXFORD.

MAZALL-220700-
EASTERN MASSACHUSETTS

CITY           SKY/WX    TMP DP  RH WIND       PRES   REMARKS
BOSTON         CLOUDY    69  67  93 W13       29.54S
6HR MIN TEMP:  66; 6HR MAX TEMP:  71; 6HR PCP:  0.01;

BEVERLY        CLOUDY    68  66  93 W10G17    29.52F
LAWRENCE       CLOUDY    67  67 100 SW6       29.55F
BEDFORD        PTCLDY    66  65  96 SW6       29.53F
BLUE HILL        N/A     67  67 100 W12       29.55F
NORWOOD        MOCLDY    69  67  93 SW6       29.55S
MARSHFIELD     NOT AVBL
PLYMOUTH       CLOUDY    67  64  90 W10       29.56S
TAUNTON        CLOUDY    68  66  93 W7        29.55F
NEW BEDFORD    PTCLDY    66  65  96 SW8       29.56S
$$

MAZALL-220700-
CAPE COD AND THE ISLANDS

CITY           SKY/WX    TMP DP  RH WIND       PRES   REMARKS
FALMOUTH       CLOUDY    66  66 100 W12       29.57S
HYANNIS        PTCLDY    68  66  93 W10       29.54S
CHATHAM        MOCLDY    66  65  96 VRB5      29.56S
PROVINCETOWN   CLEAR     66  63  88 SW10      29.54S
NANTUCKET      PTCLDY    67  65  93 W10       29.57R
MARTHAS VNYRD  CLEAR     66  65  96 W7        29.57S
$$

MAZALL-220700-
CENTRAL AND WESTERN MASSACHUSETTS

CITY           SKY/WX    TMP DP  RH WIND       PRES   REMARKS
WORCESTER      MOCLDY    66  64  93 W14G24    29.58F
6HR MIN TEMP:  65; 6HR MAX TEMP:  68;

FITCHBURG      MOCLDY    70  65  84 W8        29.56F
ORANGE         CLOUDY    65  58  78 N3        29.58S
SPRINGFIELD    CLOUDY    66  58  75 W2        29.59S
WESTFIELD      CLOUDY    67  55  65 W3        29.60S
NORTH ADAMS    MOCLDY    60  54  80 CALM      29.62F
PITTSFIELD     LGT RAIN  58  54  86 CALM      29.63F
$$

RIZALL-220700-
RHODE ISLAND

CITY           SKY/WX    TMP DP  RH WIND       PRES   REMARKS
PROVIDENCE     CLOUDY    67  66  97 SW13      29.58S
6HR MIN TEMP:  66; 6HR MAX TEMP:  69;

NEWPORT        FOG       68  66  93 VRB6      29.58S VSB 1
BLOCK ISLAND   CLOUDY    66  64  94 SW12      29.61S VSB 1/2
SMITHFIELD     CLOUDY    66  63  88 SW6       29.57F
WESTERLY       CLOUDY    69  68  96 SW8       29.60S FOG
$$

CTZALL-220700-
CONNECTICUT

CITY           SKY/WX    TMP DP  RH WIND       PRES   REMARKS
BRADLEY INTL   MOCLDY    68  60  75 W6        29.60R
6HR MIN TEMP:  68; 6HR MAX TEMP:  73;

HARTFORD       CLOUDY    68  65  90 VRB7      29.61R
BRIDGEPORT     CLOUDY    69  65  86 W7        29.63R
DANBURY        LGT RAIN  64  62  93 VRB3      29.66R
GROTON         CLOUDY    68  68 100 W10       29.59S FOG
NEW HAVEN      LGT RAIN  71  66  84 VRB3      29.62R
CHESTER        NOT AVBL
MERIDEN        CLOUDY    68  64  87 NW5       29.61S
WILLIMANTIC    CLOUDY    68  66  93 MISG      29.60S
OXFORD         CLOUDY    64  61  88 NW3       29.64S
$$

MEZ002-015-021-024-NHZ003-005-008-011-012-014-VTZ005-008-220700-
NORTHERN NEW ENGLAND

CITY           SKY/WX    TMP DP  RH WIND       PRES   REMARKS
PORTLAND ME    FOG       63  62  97 W3        29.51F VSB 1/4
6HR MIN TEMP:  63; 6HR MAX TEMP:  63;

BANGOR ME      FOG       64  63  96 CALM      29.50F VSB 1/2
CONCORD NH     MOCLDY    65  65 100 CALM      29.52F
MANCHESTER NH  MOCLDY    67  65  93 S5        29.52F
NASHUA NH      PTCLDY    67  66  96 CALM      29.54F
PORTSMOUTH NH  FOG       65  64  97 SW3       29.51F VSB 1/8
JAFFREY NH     MOCLDY    65  60  84 W5        29.59R
KEENE NH       CLOUDY    66  54  63 CALM      29.59R
BURLINGTON VT  LGT RAIN  63  60  90 S8        29.52F
MT. WASHINGTON LGT RAIN  50  50 100 W39         N/A  VSB 0
$$

NYZ052-076-220700-
EASTERN NEW YORK

CITY           SKY/WX    TMP DP  RH WIND       PRES   REMARKS
ALBANY         CLOUDY    60  58  92 CALM      29.63S
6HR MIN TEMP:  60; 6HR MAX TEMP:  75; 6HR PCP:  0.01;

NEW YORK CITY  MOCLDY    70  62  76 NW12      29.65R
6HR MIN TEMP:  69; 6HR MAX TEMP:  74; 6HR PCP: TRACE;

$$

ANZALL-220700-
MARINE OBSERVATIONS

STATION/POSITION TIME  TEMP    WIND        PRES    VSBY  WAVE
                       AIR SEA DIR/SP/G                  HT/PER
                 (UTC) (F)     (DEG/KT/KT) (MB)    (MI)  (FT/S)
BOSTON BUOY      0550   65 61  250/  8/ 10 1000.2F         2/10
BUZZARDS BAY     0500          240/ 13/ 14 1002.1F
NANTUCKET SOUND  0550   68 68  250/ 12/ 14 1000.7R         1/ 3
MASS BAY-STELLWA 0504   62 61  230/  2/  4   N/A     3/16  2/11
ISLE OF SHOALS   0600   63     260/  4/  4  999.1F
S OF BLOCK IS    0508      67                N/A           4/ 7
$$

......................KEY.........................
  SKY/WX - SKY CONDITION/PRESENT WEATHER
  TMP    - TEMPERATURE IN FAHRENHEIT
  DWPT   - DEWPOINT IN FAHRENHEIT
  RH     - RELATIVE HUMIDITY IN PERCENT
  WIND   - DIRECTION AND SPEED IN MPH
  PRES   - MEAN SEA LEVEL PRESSURE IN INCHES OF HG
  WCI    - WIND CHILL INDEX
  VSB    - VISIBILITY IN MILES
  HX     - HEAT INDEX
  TC     - TEMPERATURE IN CELSIUS
  VRB    - VARIABLE WIND DIRECTION
  N/A    - NOT AVAILABLE



USA.gov is the U.S. government's official web portal to all federal, state and local government web resources and services.